Regional Weather Roundup
Issued by NWS Huntsville, AL

Home | Current Version | Previous Version | Text Only | Print | Product List | Glossary On
Versions: 1 2 3 4 5 6 7 8 9 10 11 12 13 14 15 16 17 18 19 20 21 22 23 24 25 26 27 28 29 30 31 32 33 34 35 36 37 38 39 40 41 42 43 44 45 46 47 48 49 50
000
ASUS44 KHUN 311010
RWRHUN

WEATHER ROUNDUP FOR THE TENNESSEE VALLEY
NATIONAL WEATHER SERVICE HUNTSVILLE AL
500 AM CDT MON AUG 31 2015

ALZ001>004-311100-
NORTHWEST ALABAMA

CITY           SKY/WX    TMP DP  RH WIND       PRES   REMARKS
SHOALS AIRPORT CLEAR     64  62  93 E3        30.08S FOG
SHOALS TVA RES   N/A     64 N/A N/A MISG        N/A
$$

ALZ005>007-016-311100-
NORTH CENTRAL ALABAMA

CITY           SKY/WX    TMP DP  RH WIND       PRES   REMARKS
DECATUR AP     PTCLDY    64  63  96 CALM      30.08R FOG
HUNTSVILLE AP  CLEAR     68  63  84 E3        30.07S
HUN NWS/UAH      N/A     67  62  86 N1          N/A
MERIDIANVILLE  PTCLDY    63  59  88 CALM      30.09R FOG
REDSTONE ARSN  CLEAR     65  63  96 N2        30.07R
VINEMONT AP    CLOUDY    66  63  88 E3        30.10R
$$

ALZ008>010-311100-
NORTHEAST ALABAMA

CITY           SKY/WX    TMP DP  RH WIND       PRES   REMARKS
ALBERTVILLE    CLOUDY    66  66 100 E3        30.09R
FORT PAYNE     CLOUDY    68  61  77 CALM      30.09S
SCOTTSBORO AP  CLOUDY    66  66 100 CALM      30.09R
SCOTTSBORO HCN   N/A     66 N/A N/A MISG        N/A
VALLEY HEAD      N/A     68 N/A N/A MISG        N/A
$$

TNZ076-096-097-311100-
SOUTHEASTERN MIDDLE TENNESSEE

CITY           SKY/WX    TMP DP  RH WIND       PRES   REMARKS
TULLAHOMA      CLEAR     63  63 100 CALM      30.11S
WINCHESTER     MOCLDY    64  63  94 CALM      30.10S
$$

...SURROUNDING SITES...

CITY           SKY/WX    TMP DP  RH WIND       PRES   REMARKS
ATLANTA        CLOUDY    67  65  93 E7        30.09S
ANNISTON       CLOUDY    70  67  90 E5        30.07R
BIRMINGHAM     CLOUDY    70  67  90 E3        30.08R
CHATTANOOGA    CLOUDY    70  65  84 CALM      30.10R
DALTON         CLOUDY    66  66 100 CALM      30.10S
GADSDEN        CLOUDY    70  63  78 E6        30.07R
GOLDEN TRNGL   CLEAR     64  61  88 CALM      30.04S
HALEYVILLE     FAIR      64  64 100 CALM      30.10S FOG
JACKSON TN     CLEAR     66  64  93 CALM      30.06R
MEMPHIS        CLEAR     72  67  84 SE6       30.04R
NASHVILLE      CLEAR     66  63  90 CALM      30.09R
OXFORD MS      FAIR      66  64  94 SE6       30.06S
ROME           CLOUDY    69  65  86 CALM      30.09R
SAVANNAH       CLEAR     63  32  31 CALM      30.07S
TUPELO         CLEAR     67  64  90 CALM      30.05R
TUSCALOOSA     PTCLDY    67  65  93 CALM      30.05R
$$

...GULF COAST WEATHER...

CITY           SKY/WX    TMP DP  RH WIND       PRES   REMARKS
GULFPORT       CLEAR     72  69  90 N5        30.01R
PASCAGOULA     CLEAR     67  66  97 CALM      30.01R
MOBILE         CLEAR     69  68  96 NW3       30.02R
GULF SHORES    SUNNY     69  69 100 CALM      30.01R
PENSACOLA      CLEAR     71  70  96 N3        30.00R
DESTIN         CLEAR     76  71  85 N3        29.99S
PANAMA CITY    CLEAR     70  68  92 NW2       29.99R
APPALACHICOLA  CLEAR     71  71 100 NE6       29.99R
$$



USA.gov is the U.S. government's official web portal to all federal, state and local government web resources and services.